YAOGAN-4

Last updated on Mon Sep 15 2025 00:02:30 GMT+0000 (Coordinated Universal Time)

1 33446U 08061A 25257.23919477 .00001041 00000+0 13680-3 0 9994 2 33446 97.9056 188.3120 0013019 247.4878 112.4957 14.82278589904775
UTC large
Height (km)
Speed (km/s)
/
Latitude / Longitude
Inclination (degrees)
Orbital Period (minutes)
Azimuth
Elevation
Range (km)
Doppler Factor

Next 0 passes for location: London (51.5072 / 0.1276)

Sorry there are no passes over London.